TimeEDT,TemperatureF,Dew PointF,Humidity,Sea Level PressureIn,VisibilityMPH,Wind Direction,Wind SpeedMPH,Gust SpeedMPH,PrecipitationIn,Events,Conditions,WindDirDegrees,DateUTC
12:15 AM,42.8,39.2,87,30.27,10.0,Calm,Calm,-,N/A,,Unknown,0,2013-05-27 04:15:00
12:35 AM,42.8,39.2,87,30.27,10.0,Calm,Calm,-,N/A,,Unknown,0,2013-05-27 04:35:00
12:55 AM,42.8,39.2,87,30.28,10.0,Calm,Calm,-,N/A,,Unknown,0,2013-05-27 04:55:00
1:15 AM,41.0,39.2,93,30.28,10.0,Calm,Calm,-,N/A,,Unknown,0,2013-05-27 05:15:00
1:35 AM,41.0,39.2,93,30.28,10.0,Calm,Calm,-,N/A,,Unknown,0,2013-05-27 05:35:00
1:55 AM,39.2,39.2,100,30.28,10.0,Calm,Calm,-,N/A,,Unknown,0,2013-05-27 05:55:00
2:15 AM,39.2,39.2,100,30.28,10.0,Calm,Calm,-,N/A,,Unknown,0,2013-05-27 06:15:00
2:35 AM,39.2,39.2,100,30.28,10.0,Calm,Calm,-,N/A,,Unknown,0,2013-05-27 06:35:00
2:55 AM,39.2,39.2,100,30.28,10.0,Calm,Calm,-,N/A,,Unknown,0,2013-05-27 06:55:00
3:15 AM,37.4,37.4,100,30.28,10.0,Calm,Calm,-,N/A,,Unknown,0,2013-05-27 07:15:00
3:35 AM,37.4,37.4,100,30.29,10.0,Calm,Calm,-,N/A,,Unknown,0,2013-05-27 07:35:00
3:55 AM,37.4,37.4,100,30.29,10.0,Calm,Calm,-,N/A,,Unknown,0,2013-05-27 07:55:00
4:15 AM,37.4,37.4,100,30.29,10.0,Calm,Calm,-,N/A,,Unknown,0,2013-05-27 08:15:00
4:35 AM,37.4,37.4,100,30.28,10.0,Calm,Calm,-,N/A,,Unknown,0,2013-05-27 08:35:00
4:55 AM,37.4,37.4,100,30.28,10.0,Calm,Calm,-,N/A,,Unknown,0,2013-05-27 08:55:00
5:15 AM,37.4,37.4,100,30.28,10.0,Calm,Calm,-,N/A,,Unknown,0,2013-05-27 09:15:00
5:35 AM,37.4,37.4,100,30.28,10.0,Calm,Calm,-,N/A,,Unknown,0,2013-05-27 09:35:00
5:55 AM,35.6,35.6,100,30.28,10.0,Calm,Calm,-,N/A,,Unknown,0,2013-05-27 09:55:00
6:15 AM,35.6,35.6,100,30.29,10.0,Calm,Calm,-,N/A,,Unknown,0,2013-05-27 10:15:00
6:35 AM,37.4,37.4,100,30.28,10.0,Calm,Calm,-,N/A,,Unknown,0,2013-05-27 10:35:00
6:55 AM,37.4,37.4,100,30.29,10.0,Calm,Calm,-,N/A,,Unknown,0,2013-05-27 10:55:00
7:15 AM,39.2,39.2,100,30.29,10.0,Calm,Calm,-,N/A,,Unknown,0,2013-05-27 11:15:00
7:35 AM,42.8,42.8,100,30.29,10.0,Calm,Calm,-,N/A,,Unknown,0,2013-05-27 11:35:00
7:55 AM,46.4,42.8,87,30.28,10.0,Calm,Calm,-,N/A,,Unknown,0,2013-05-27 11:55:00
8:15 AM,50.0,42.8,76,30.29,10.0,Calm,Calm,-,N/A,,Unknown,0,2013-05-27 12:15:00
8:35 AM,53.6,42.8,67,30.29,10.0,Calm,Calm,-,N/A,,Unknown,0,2013-05-27 12:35:00
8:55 AM,55.4,39.2,54,30.29,10.0,ESE,3.5,-,N/A,,Unknown,110,2013-05-27 12:55:00
9:15 AM,57.2,41.0,55,30.29,10.0,Calm,Calm,-,N/A,,Unknown,0,2013-05-27 13:15:00
9:35 AM,57.2,39.2,51,30.29,10.0,ESE,3.5,-,N/A,,Unknown,110,2013-05-27 13:35:00
9:55 AM,59.0,37.4,45,30.29,10.0,SSE,4.6,-,N/A,,Unknown,160,2013-05-27 13:55:00
10:15 AM,59.0,37.4,45,30.28,10.0,Calm,Calm,-,N/A,,Unknown,0,2013-05-27 14:15:00
10:35 AM,60.8,39.2,45,30.28,10.0,SSW,3.5,-,N/A,,Unknown,210,2013-05-27 14:35:00
10:55 AM,60.8,37.4,42,30.28,10.0,Calm,Calm,-,N/A,,Unknown,0,2013-05-27 14:55:00
11:15 AM,60.8,37.4,42,30.28,10.0,Calm,Calm,-,N/A,,Unknown,0,2013-05-27 15:15:00
11:35 AM,62.6,37.4,39,30.27,10.0,Calm,Calm,-,N/A,,Unknown,0,2013-05-27 15:35:00
11:55 AM,62.6,37.4,39,30.26,10.0,Calm,Calm,-,N/A,,Unknown,0,2013-05-27 15:55:00
12:15 PM,62.6,37.4,39,30.27,10.0,Calm,Calm,-,N/A,,Unknown,0,2013-05-27 16:15:00
12:35 PM,62.6,39.2,42,30.26,10.0,SW,6.9,-,N/A,,Unknown,230,2013-05-27 16:35:00
12:55 PM,62.6,39.2,42,30.26,10.0,West,4.6,-,N/A,,Unknown,270,2013-05-27 16:55:00
1:15 PM,62.6,39.2,42,30.26,10.0,West,4.6,-,N/A,,Unknown,280,2013-05-27 17:15:00
1:35 PM,62.6,39.2,42,30.26,10.0,WSW,5.8,-,N/A,,Unknown,250,2013-05-27 17:35:00
1:55 PM,60.8,39.2,45,30.25,10.0,West,4.6,-,N/A,,Unknown,270,2013-05-27 17:55:00
2:15 PM,62.6,39.2,42,30.24,10.0,West,6.9,-,N/A,,Unknown,260,2013-05-27 18:15:00
2:35 PM,62.6,41.0,45,30.24,10.0,West,6.9,-,N/A,,Unknown,270,2013-05-27 18:35:00
2:55 PM,62.6,42.8,48,30.24,10.0,WSW,4.6,-,N/A,,Unknown,240,2013-05-27 18:55:00
3:15 PM,62.6,42.8,48,30.23,10.0,West,5.8,-,N/A,,Unknown,270,2013-05-27 19:15:00
3:35 PM,62.6,42.8,48,30.23,10.0,Calm,Calm,-,N/A,,Unknown,0,2013-05-27 19:35:00
3:55 PM,62.6,42.8,48,30.23,10.0,West,4.6,-,N/A,,Unknown,280,2013-05-27 19:55:00
4:15 PM,60.8,42.8,52,30.22,10.0,Calm,Calm,-,N/A,,Unknown,0,2013-05-27 20:15:00
4:35 PM,60.8,44.6,55,30.21,10.0,WSW,3.5,-,N/A,,Unknown,240,2013-05-27 20:35:00
4:55 PM,60.8,44.6,55,30.21,10.0,West,4.6,-,N/A,,Unknown,270,2013-05-27 20:55:00
5:15 PM,60.8,46.4,59,30.21,10.0,West,3.5,-,N/A,,Unknown,280,2013-05-27 21:15:00
5:35 PM,60.8,44.6,55,30.21,10.0,Calm,Calm,-,N/A,,Unknown,0,2013-05-27 21:35:00
5:55 PM,60.8,44.6,55,30.21,10.0,Calm,Calm,-,N/A,,Unknown,0,2013-05-27 21:55:00
6:15 PM,60.8,44.6,55,30.21,10.0,Calm,Calm,-,N/A,,Unknown,0,2013-05-27 22:15:00
6:35 PM,59.0,46.4,63,30.21,10.0,Calm,Calm,-,N/A,,Unknown,0,2013-05-27 22:35:00
6:55 PM,57.2,48.2,72,30.21,10.0,Calm,Calm,-,N/A,,Unknown,0,2013-05-27 22:55:00
7:15 PM,55.4,55.4,100,30.20,10.0,Calm,Calm,-,N/A,,Unknown,0,2013-05-27 23:15:00
7:35 PM,55.4,53.6,94,30.19,10.0,Calm,Calm,-,0.01,,Unknown,0,2013-05-27 23:35:00
7:55 PM,53.6,53.6,100,30.20,10.0,Calm,Calm,-,0.01,,Unknown,0,2013-05-27 23:55:00
8:15 PM,53.6,53.6,100,30.19,10.0,East,3.5,-,N/A,,Unknown,90,2013-05-28 00:15:00
8:35 PM,53.6,53.6,100,30.19,10.0,Calm,Calm,-,N/A,,Unknown,0,2013-05-28 00:35:00
8:55 PM,53.6,51.8,94,30.17,10.0,ESE,6.9,-,N/A,,Unknown,120,2013-05-28 00:55:00
9:15 PM,53.6,53.6,100,30.19,10.0,Calm,Calm,-,N/A,,Unknown,0,2013-05-28 01:15:00
9:35 PM,53.6,53.6,100,30.16,10.0,ESE,8.1,-,N/A,,Unknown,120,2013-05-28 01:35:00
9:55 PM,53.6,51.8,94,30.15,10.0,ESE,8.1,-,N/A,,Unknown,120,2013-05-28 01:55:00
10:15 PM,53.6,51.8,94,30.16,10.0,South,12.7,17.3,0.01,,Unknown,170,2013-05-28 02:15:00
10:35 PM,55.4,50.0,82,30.15,10.0,WSW,4.6,-,0.01,,Unknown,240,2013-05-28 02:35:00
10:55 PM,55.4,51.8,88,30.17,10.0,WNW,8.1,-,0.01,,Unknown,300,2013-05-28 02:55:00
11:15 PM,53.6,51.8,94,30.17,10.0,Calm,Calm,-,N/A,,Unknown,0,2013-05-28 03:15:00
11:35 PM,53.6,51.8,94,30.17,10.0,Calm,Calm,-,N/A,,Unknown,0,2013-05-28 03:35:00
11:55 PM,53.6,53.6,100,30.16,10.0,Calm,Calm,-,N/A,,Unknown,0,2013-05-28 03:55:00